Hourly Data Report for October 01, 2015

All times are specified in Local Standard Time (LST). Add 1 hour to adjust for Daylight Saving Time where and when it is observed.

BAKER LAKE A
NUNAVUT

64°17'56.000" N
96°04'40.000" W
18.60 m
2300503
71926
YBK

Download Data

Hourly Data (October 2015)
Hourly Data Report for October 1, 2015
Temp Definition
°C
Dew Point Temp Definition
°C
Rel Hum Definition
%
Wind Dir Definition
10's deg

Wind Spd Definition
km/h
Visibility Definition
km
Stn Press Definition
kPa
Hmdx Definition


Wind Chill Definition


Weather Definition


TIME
00:00 Legend Double Dagger 6.6 2.1 73 21 34 24.1 100.72     Mostly Cloudy
01:00 Legend Double Dagger 6.4 2.5 76 21 28 24.1 100.69     LegendNANA
02:00 Legend Double Dagger 6.3 2.6 77 22 34 24.1 100.62     LegendNANA
03:00 Legend Double Dagger 6.0 2.8 80 22 24 24.1 100.62     Mostly Cloudy
04:00 Legend Double Dagger 5.8 3.0 82 21 22 24.1 100.61     LegendNANA
05:00 Legend Double Dagger 5.6 3.0 83 21 20 24.1 100.62     LegendNANA
06:00 Legend Double Dagger 5.2 3.1 86 22 17 32.2 100.67     Mainly Clear
07:00 Legend Double Dagger 5.3 3.2 86 21 27 32.2 100.63     LegendNANA
08:00 Legend Double Dagger 6.4 3.7 83 21 24 32.2 100.62     LegendNANA
09:00 Legend Double Dagger 7.6 4.0 78 21 15 32.2 100.73     Mainly Clear
10:00 Legend Double Dagger 10.2 5.4 72 22 17 32.2 100.75     LegendNANA
11:00 Legend Double Dagger 11.8 6.6 70 25 31 32.2 100.80     LegendNANA
12:00 Legend Double Dagger 13.3 6.9 65 28 37 32.2 100.89     Mainly Clear
13:00 Legend Double Dagger 12.6 6.9 68 29 25 32.2 101.10     LegendNANA
14:00 Legend Double Dagger 11.8 5.3 64 34 41 32.2 101.33     LegendNANA
15:00 Legend Double Dagger 9.7 2.6 61 34 37 32.2 101.51     Mainly Clear
16:00 Legend Double Dagger 7.7 1.3 64 34 30 32.2 101.74     LegendNANA
17:00 Legend Double Dagger 5.3 0.5 71 33 14 32.2 101.93     LegendNANA
18:00 Legend Double Dagger 3.9 -0.9 71 35 16 32.2 102.11     Mainly Clear
19:00 Legend Double Dagger 3.0 -1.0 75 34 22 24.1 102.25     LegendNANA
20:00 Legend Double Dagger 2.3 -1.1 78 34 17 24.1 102.40     LegendNANA
21:00 Legend Double Dagger 3.1 -0.9 75 34 13 24.1 102.51     Mostly Cloudy
22:00 Legend Double Dagger 2.8 -0.5 79 34 13 24.1 102.59     LegendNANA
23:00 Legend Double Dagger 2.7 -0.4 80 35 15 24.1 102.65     LegendNANA

Notes on Data Quality.

Legend

  • E = Estimated
  • M = Missing
  • NA = Not Available
  • ‡ = Partner data that is not subject to review by the National Climate Archives
Date modified: